This demonstration page uses our WeatherBlox Daily Observations layout. Learn more.

Left ArrowRight Arrow

39.08367, -84.50855

Hourly Observations for June 22, 2020

Temp ( °F °C ) Dew Point ( °F °C ) Humidity (%) Winds ( mph kmh ) Pressure ( in mb ) Visibility ( mi km ) Precip ( " mm )
12:34 am 00:34 Cloudy with Heavy Rain 70 21.1 69 20.6 97 97 Calm 29.91 1013 3 4.82802 0.07 1.778
12:37 am 00:37 Cloudy with Heavy Rain 70 21.1 69 20.6 97 97 ESE 3 6 29.91 1013 2.5 4.02335 0.12 3.048
12:42 am 00:42 Cloudy with Heavy Rain 70 21.1 68 20 93 93 SE 6 9 29.91 1013 1.25 2.011675 0.25 6.35
12:53 am 00:53 Cloudy with Heavy Rain 70 21.1 68 20 93 93 E 7 11 29.9 1013 1.75 2.816345 0.35 8.89
12:55 am 00:55 Cloudy with Heavy Rain 70 21.1 68 20 93 93 E 7 11 29.91 1013 2 3.21868 0.02 0.508
12:58 am 00:58 Cloudy with Heavy Rain 70 21.1 68 20 93 93 VRB 3 6 29.91 1013 1.75 2.816345 0.05 1.27
1:03 am 01:03 Cloudy with Heavy Rain 70 21.1 68 20 93 93 Calm 29.9 1012 2.5 4.02335 0.06 1.524
1:07 am 01:07 Cloudy with Rain 70 21.1 68 20 93 93 VRB 3 6 29.91 1013 4 6.43736 0.07 1.778
1:10 am 01:10 Cloudy with Light Rain 70 21.1 68 20 93 93 Calm 29.9 1012 5 8.0467 0.07 1.778
1:37 am 01:37 Cloudy with Light Rain 70 21.1 68 20 93 93 N 3 6 29.91 1013 10 16.0934 0.09 2.286
1:53 am 01:53 Cloudy with Light Rain 70 21.1 68 20 93 93 Calm 29.9 1013 8 12.87472 0.09 2.286
2:02 am 02:02 Cloudy with Light Rain 70 21.1 68 20 93 93 Calm 29.9 1012 9 14.48406 0.001 0.001
2:11 am 02:11 Cloudy 70 21.1 68 20 93 93 Calm 29.91 1013 7 11.26538 0.001 0.001
2:19 am 02:19 Cloudy 70 21.1 68 20 93 93 Calm 29.9 1012 7 11.26538 0.001 0.001
2:53 am 02:53 Cloudy 70 21.1 69 20.6 97 97 Calm 29.9 1012 7 11.26538 0.001 0.001
3:17 am 03:17 Cloudy 70 21.1 69 20.6 97 97 ENE 3 6 29.89 1012 8 12.87472 0 0
3:43 am 03:43 Cloudy 71 21.7 68 20 90 90 Calm 29.9 1012 10 16.0934 0 0
3:53 am 03:53 Cloudy 71 21.7 68 20 90 90 Calm 29.9 1013 10 16.0934 0 0
4:11 am 04:11 Cloudy 71 21.7 68 20 90 90 Calm 29.91 1013 10 16.0934 0 0
4:26 am 04:26 Cloudy 70 21.1 68 20 93 93 Calm 29.9 1012 9 14.48406 0 0
4:34 am 04:34 Cloudy with Mist and Fog 70 21.1 68 20 93 93 Calm 29.9 1012 6 9.65604 0 0
4:39 am 04:39 Cloudy with Mist and Fog 70 21.1 68 20 93 93 Calm 29.91 1013 5 8.0467 0 0
4:51 am 04:51 Cloudy with Mist and Fog 70 21 68 20 94 94 Calm 29.91 1013 6 9.65604 0 0
4:53 am 04:53 Cloudy with Mist and Fog 70 21.1 68 20 93 93 Calm 29.9 1013 6 9.65604 0 0
5:28 am 05:28 Cloudy with Light Rain 70 21.1 69 20.6 97 97 Calm 29.91 1013 6 9.65604 0.001 0.001
5:35 am 05:35 Cloudy with Mist and Fog 70 21.1 69 20.6 97 97 Calm 29.91 1013 6 9.65604 0.001 0.001
5:53 am 05:53 Cloudy with Light Rain 70 21.1 68 20 93 93 Calm 29.91 1013 6 9.65604 0.001 0.001
6:19 am 06:19 Cloudy with Light Rain 70 21.1 68 20 93 93 W 3 6 29.91 1013 3 4.82802 0.02 0.508
6:53 am 06:53 Cloudy with Light Rain 70 21.1 68 20 93 93 W 10 17 29.91 1013 3 4.82802 0.02 0.508
7:01 am 07:01 Cloudy with Light Rain 70 21.1 68 20 93 93 W 8 13 29.92 1013 3 4.82802 0.001 0.001
7:53 am 07:53 Mostly Cloudy with Mist and Fog 71 21.7 67 19.4 87 87 W 6 9 29.93 1013 4 6.43736 0.001 0.001
8:53 am 08:53 Cloudy 72 22.2 66 18.9 82 82 W 8 13 29.93 1014 9 14.48406 0 0
9:53 am 09:53 Mostly Cloudy 74 23.3 67 19.4 79 79 WSW 7 11 29.96 1014 10 16.0934 0 0
10:53 am 10:53 Mostly Cloudy 76 24.4 67 19.4 74 74 SW 9 15 29.96 1015 10 16.0934 0 0
11:53 am 11:53 Mostly Cloudy 78 25.6 67 19.4 69 69 SSW 9 15 29.97 1015 10 16.0934 0 0
12:53 pm 12:53 Partly Cloudy 81 27.2 68 20 65 65 WSW 7 11 29.96 1014 10 16.0934 0 0
1:53 pm 13:53 Mostly Sunny 81 27.2 69 20.6 67 67 S 8 13 29.93 1014 10 16.0934 0 0
2:53 pm 14:53 Mostly Cloudy 82 27.8 67 19.4 60 60 SSW 7 11 29.91 1013 10 16.0934 0 0
3:53 pm 15:53 Mostly Cloudy 82 27.8 68 20 63 63 SSE 9 15 29.88 1012 10 16.0934 0 0
4:53 pm 16:53 Mostly Cloudy 82 27.8 69 20.6 65 65 SSW 3 6 29.86 1011 10 16.0934 0 0
5:53 pm 17:53 Partly Cloudy 84 28.9 68 20 59 59 VRB 7 11 29.84 1011 10 16.0934 0 0
6:53 pm 18:53 Mostly Sunny 83 28.3 68 20 61 61 S 9 15 29.82 1010 10 16.0934 0 0
7:53 pm 19:53 Mostly Sunny 82 27.8 67 19.4 60 60 S 10 17 29.81 1009 10 16.0934 0 0
8:53 pm 20:53 Sunny 77 25 67 19.4 71 71 S 5 7 29.81 1010 10 16.0934 0 0
9:53 pm 21:53 Clear 76 24.4 68 20 77 77 Calm 29.82 1010 10 16.0934 0 0
10:53 pm 22:53 Mostly Clear 75 23.9 68 20 79 79 S 3 6 29.82 1010 10 16.0934 0 0
11:53 pm 23:53 Cloudy with Nearby Thunderstorms 77 25 67 19.4 71 71 SSW 14 22 29.81 1009 10 16.0934 0 0

Powered by AerisWeather